Location: *
(53.4003°S, 165.3236°W)
Time: 03:26:02
(UTC+00:00)

COBE Rocket - Pass Details

Date: 11 December 2023
Orbit: 678 x 777 km, 97.1° (Epoch: 24 February)

Event Time Altitude Azimuth Distance (km) Brightness Sun altitude
Rises 13:26:06 0° 10° (N) 3,049 6.7 -6.8°
Reaches altitude 10° 13:28:19 10° 8° (N) 2,147 5.9 -6.7°
Maximum altitude 13:33:01 74° 282° (WNW) 740 3.8 -6.3°
Drops below altitude 10° 13:37:54 10° 196° (SSW) 2,222 7.0 -5.8°
Sets 13:40:13 0° 194° (SSW) 3,164 7.8 -5.6°
